CUBESAT XI-IV (CO-57)

Last updated on Sat Apr 13 2024 01:02:57 GMT+0100 (British Summer Time)

1 27848U 03031J 24103.54733271 .00000396 00000+0 19652-3 0 9991 2 27848 98.6830 111.7715 0009526 358.8075 1.3078 14.22613123 78207
UTC large
Height (km)
Speed (km/s)
/
Latitude / Longitude
Inclination (degrees)
Orbital Period (minutes)
Azimuth
Elevation
Range (km)
Doppler Factor

Next 0 passes for location: London (51.5072 / 0.1276)

Sorry there are no passes over London.